Starlink 11129

operational
NORAD ID: 60038 Int'l Des: 2024-112 Owner: SPXS Country: US Constellation: starlink
LEOCIRCULAR

About Starlink 11129

Description loading...

Live Position

Loading 3D Globe...

Upcoming Passes

Altitude History

Altitude vs Time

uPlot chart will show altitude changes over time

Two-Line Element Set

1 60038U 24112A 25260.68173196 .00004319 00000-0 40476-4 0 9995
2 60038 53.1581 39.4684 0001073 79.5686 280.5453 15.69719169 73807
Epoch: Sep 17, 2025 • Age: 20 hours

Current Status

Altitude 361.8 km
Velocity 7.70 km/s
Sub-Earth Point 35.42°N, 116.66°W
Launch Date Jun 8, 2024
Age 1.2 years
Type internet

Technical Details

Classification Payload
Mass 960.00 kg
Dry Mass 910.00 kg
Total Mass 960.00 kg
Length 0.30 m
Diameter 4.10 m
Span 29.00 m
Shape Box + pan
Manufacturer SPXS
Bus Type Starlink V2MD
Phase Status In Orbit
Owner/State SPXS/US

Large Constellations

Loading constellations...